Time,TemperatureF,DewpointF,PressureIn,WindDirection,WindDirectionDegrees,WindSpeedMPH,WindSpeedGustMPH,Humidity,HourlyPrecipIn,Conditions,Clouds,dailyrainin,SoftwareType,DateUTC
2013-11-09 00:11:00,45.5,-49.7,29.91,East,90,0.0,-999.0,1,-99.99,,,0.00,Acu-Link.com,2013-11-09 06:11:00,
2013-11-09 00:26:00,46.4,-49.2,29.91,West,270,0.0,-999.0,1,-99.99,,,0.00,Acu-Link.com,2013-11-09 06:26:00,
2013-11-09 00:41:00,46.2,-49.3,29.92,SW,225,0.0,-999.0,1,-99.99,,,0.00,Acu-Link.com,2013-11-09 06:41:00,
2013-11-09 00:56:00,46.9,-48.8,29.91,SW,225,0.0,-999.0,1,-99.99,,,0.00,Acu-Link.com,2013-11-09 06:56:00,
2013-11-09 01:12:00,46.4,-49.2,29.91,WNW,292,0.0,-999.0,1,-99.99,,,0.00,Acu-Link.com,2013-11-09 07:12:00,
2013-11-09 01:27:00,47.8,-48.3,29.91,West,270,0.0,-999.0,1,-99.99,,,0.00,Acu-Link.com,2013-11-09 07:27:00,
2013-11-09 01:42:00,47.5,-48.5,29.91,WNW,292,0.0,-999.0,1,-99.99,,,0.00,Acu-Link.com,2013-11-09 07:42:00,
2013-11-09 01:57:00,47.5,-48.5,29.90,ESE,112,0.0,-999.0,1,-99.99,,,0.00,Acu-Link.com,2013-11-09 07:57:00,
2013-11-09 02:12:00,46.9,-48.8,29.89,ESE,112,0.0,-999.0,1,-99.99,,,0.00,Acu-Link.com,2013-11-09 08:12:00,
2013-11-09 02:27:00,47.3,-48.6,29.90,SSW,202,0.0,-999.0,1,-99.99,,,0.00,Acu-Link.com,2013-11-09 08:27:00,
2013-11-09 02:43:00,47.3,-48.6,29.89,West,270,0.0,-999.0,1,-99.99,,,0.00,Acu-Link.com,2013-11-09 08:43:00,
2013-11-09 02:58:00,46.6,-49.0,29.89,WNW,292,0.0,-999.0,1,-99.99,,,0.00,Acu-Link.com,2013-11-09 08:58:00,
2013-11-09 03:13:00,46.4,-49.2,29.90,WSW,247,0.0,-999.0,1,-99.99,,,0.00,Acu-Link.com,2013-11-09 09:13:00,
2013-11-09 03:28:00,46.8,-48.9,29.89,WNW,292,0.0,-999.0,1,-99.99,,,0.00,Acu-Link.com,2013-11-09 09:28:00,
2013-11-09 03:43:00,47.5,-48.5,29.89,WNW,292,0.0,-999.0,1,-99.99,,,0.00,Acu-Link.com,2013-11-09 09:43:00,
2013-11-09 03:58:00,47.1,-48.7,29.90,WNW,292,0.0,-999.0,1,-99.99,,,0.00,Acu-Link.com,2013-11-09 09:58:00,
2013-11-09 04:13:00,47.7,-48.4,29.90,NNE,22,0.0,-999.0,1,-99.99,,,0.00,Acu-Link.com,2013-11-09 10:13:00,
2013-11-09 04:29:00,47.8,-48.3,29.89,ESE,112,0.0,-999.0,1,-99.99,,,0.00,Acu-Link.com,2013-11-09 10:29:00,
2013-11-09 04:44:00,48.0,-48.2,29.90,NE,45,0.0,-999.0,1,-99.99,,,0.00,Acu-Link.com,2013-11-09 10:44:00,
2013-11-09 04:59:00,47.7,-48.4,29.90,ESE,112,0.0,-999.0,1,-99.99,,,0.00,Acu-Link.com,2013-11-09 10:59:00,
2013-11-09 05:14:00,47.7,-48.4,29.91,WSW,247,0.0,-999.0,1,-99.99,,,0.00,Acu-Link.com,2013-11-09 11:14:00,
2013-11-09 05:29:00,48.6,-47.8,29.91,ESE,112,0.0,-999.0,1,-99.99,,,0.00,Acu-Link.com,2013-11-09 11:29:00,
2013-11-09 05:45:00,48.2,-48.1,29.92,West,270,0.0,-999.0,1,-99.99,,,0.00,Acu-Link.com,2013-11-09 11:45:00,
2013-11-09 06:00:00,47.8,-48.3,29.93,WNW,292,0.0,-999.0,1,-99.99,,,0.00,Acu-Link.com,2013-11-09 12:00:00,
2013-11-09 06:15:00,48.7,-47.7,29.93,West,270,0.0,-999.0,1,-99.99,,,0.00,Acu-Link.com,2013-11-09 12:15:00,
2013-11-09 06:30:00,48.2,-48.1,29.94,West,270,0.0,-999.0,1,-99.99,,,0.00,Acu-Link.com,2013-11-09 12:30:00,
2013-11-09 06:46:00,48.2,-48.1,29.94,NE,45,0.0,-999.0,1,-99.99,,,0.00,Acu-Link.com,2013-11-09 12:46:00,
2013-11-09 07:01:00,48.4,-47.9,29.95,NNE,22,0.0,-999.0,1,-99.99,,,0.00,Acu-Link.com,2013-11-09 13:01:00,
2013-11-09 07:16:00,48.7,-47.7,29.95,NW,315,0.0,-999.0,1,-99.99,,,0.00,Acu-Link.com,2013-11-09 13:16:00,
2013-11-09 07:31:00,49.3,-47.4,29.95,East,90,1.7,-999.0,1,-99.99,,,0.00,Acu-Link.com,2013-11-09 13:31:00,
2013-11-09 07:47:00,49.8,-47.1,29.96,NE,45,2.2,-999.0,1,-99.99,,,0.00,Acu-Link.com,2013-11-09 13:47:00,
2013-11-09 08:02:00,50.7,-46.5,29.96,NE,45,2.7,-999.0,1,-99.99,,,0.00,Acu-Link.com,2013-11-09 14:02:00,
2013-11-09 08:17:00,53.8,-44.6,29.95,NE,45,2.7,-999.0,1,-99.99,,,0.00,Acu-Link.com,2013-11-09 14:17:00,
2013-11-09 08:32:00,56.5,-43.0,29.95,ENE,67,2.7,-999.0,1,-99.99,,,0.00,Acu-Link.com,2013-11-09 14:32:00,
2013-11-09 08:47:00,58.8,-41.6,29.96,ENE,67,3.7,-999.0,1,-99.99,,,0.00,Acu-Link.com,2013-11-09 14:47:00,
2013-11-09 09:04:00,60.4,-40.6,29.96,ESE,112,2.7,-999.0,1,-99.99,,,0.00,Acu-Link.com,2013-11-09 15:04:00,
2013-11-09 09:20:00,62.2,-39.5,29.96,North,0,1.7,-999.0,1,-99.99,,,0.00,Acu-Link.com,2013-11-09 15:20:00,
2013-11-09 09:35:00,64.6,-38.1,29.96,SSW,202,0.0,-999.0,1,-99.99,,,0.00,Acu-Link.com,2013-11-09 15:35:00,
2013-11-09 09:50:00,68.4,-35.8,29.96,NW,315,2.2,-999.0,1,-99.99,,,0.00,Acu-Link.com,2013-11-09 15:50:00,
2013-11-09 10:06:00,71.4,-34.0,29.95,NE,45,3.2,-999.0,1,-99.99,,,0.00,Acu-Link.com,2013-11-09 16:06:00,
2013-11-09 10:21:00,73.6,-32.7,29.95,ENE,67,4.2,-999.0,1,-99.99,,,0.00,Acu-Link.com,2013-11-09 16:21:00,
2013-11-09 10:36:00,70.3,-34.6,29.94,WNW,292,3.7,-999.0,1,-99.99,,,0.00,Acu-Link.com,2013-11-09 16:36:00,
2013-11-09 10:51:00,74.1,-32.4,29.94,NNE,22,1.1,-999.0,1,-99.99,,,0.00,Acu-Link.com,2013-11-09 16:51:00,
2013-11-09 11:07:00,73.0,-33.0,29.94,NNW,337,2.2,-999.0,1,-99.99,,,0.00,Acu-Link.com,2013-11-09 17:07:00,
2013-11-09 11:22:00,74.5,-32.1,29.95,North,0,7.3,-999.0,1,-99.99,,,0.00,Acu-Link.com,2013-11-09 17:22:00,
2013-11-09 11:37:00,74.5,-32.1,29.94,NE,45,5.8,-999.0,1,-99.99,,,0.00,Acu-Link.com,2013-11-09 17:37:00,
2013-11-09 11:52:00,73.2,-32.9,29.93,ENE,67,3.7,-999.0,1,-99.99,,,0.00,Acu-Link.com,2013-11-09 17:52:00,
2013-11-09 12:07:00,72.0,-33.6,29.93,NNW,337,4.2,-999.0,1,-99.99,,,0.00,Acu-Link.com,2013-11-09 18:07:00,
2013-11-09 12:22:00,73.8,-32.5,29.91,ESE,112,2.7,-999.0,1,-99.99,,,0.00,Acu-Link.com,2013-11-09 18:22:00,
2013-11-09 12:37:00,75.2,-31.7,29.89,NNE,22,5.8,-999.0,1,-99.99,,,0.00,Acu-Link.com,2013-11-09 18:37:00,
2013-11-09 12:53:00,71.6,-33.9,29.90,NE,45,5.3,-999.0,1,-99.99,,,0.00,Acu-Link.com,2013-11-09 18:53:00,
2013-11-09 13:08:00,73.6,-32.7,29.90,NNW,337,2.7,-999.0,1,-99.99,,,0.00,Acu-Link.com,2013-11-09 19:08:00,
2013-11-09 13:23:00,72.0,-33.6,29.89,NNE,22,4.2,-999.0,1,-99.99,,,0.00,Acu-Link.com,2013-11-09 19:23:00,
2013-11-09 13:38:00,70.9,-34.3,29.88,NE,45,3.2,-999.0,1,-99.99,,,0.00,Acu-Link.com,2013-11-09 19:38:00,
2013-11-09 13:54:00,70.7,-34.4,29.88,NNW,337,4.7,-999.0,1,-99.99,,,0.00,Acu-Link.com,2013-11-09 19:54:00,
2013-11-09 14:09:00,70.7,-34.4,29.88,WNW,292,3.7,-999.0,1,-99.99,,,0.00,Acu-Link.com,2013-11-09 20:09:00,
2013-11-09 14:24:00,70.9,-34.3,29.89,West,270,4.7,-999.0,1,-99.99,,,0.00,Acu-Link.com,2013-11-09 20:24:00,
2013-11-09 14:39:00,70.0,-34.8,29.89,NNW,337,4.2,-999.0,1,-99.99,,,0.00,Acu-Link.com,2013-11-09 20:39:00,
2013-11-09 14:55:00,70.3,-34.6,29.89,North,0,3.2,-999.0,1,-99.99,,,0.00,Acu-Link.com,2013-11-09 20:55:00,
2013-11-09 15:18:00,69.8,-34.9,29.88,North,0,6.3,-999.0,1,-99.99,,,0.00,Acu-Link.com,2013-11-09 21:18:00,
2013-11-09 15:33:00,69.3,-35.2,29.88,NE,45,2.7,-999.0,1,-99.99,,,0.00,Acu-Link.com,2013-11-09 21:33:00,
2013-11-09 15:48:00,69.1,-35.4,29.88,NW,315,3.7,-999.0,1,-99.99,,,0.00,Acu-Link.com,2013-11-09 21:48:00,
2013-11-09 16:04:00,68.5,-35.7,29.88,NW,315,3.7,-999.0,1,-99.99,,,0.00,Acu-Link.com,2013-11-09 22:04:00,
2013-11-09 16:19:00,66.0,-37.2,29.88,NW,315,3.2,-999.0,1,-99.99,,,0.00,Acu-Link.com,2013-11-09 22:19:00,
2013-11-09 16:34:00,65.1,-37.8,29.88,NNW,337,3.2,-999.0,1,-99.99,,,0.00,Acu-Link.com,2013-11-09 22:34:00,
2013-11-09 16:49:00,64.2,-38.3,29.88,NNE,22,3.2,-999.0,1,-99.99,,,0.00,Acu-Link.com,2013-11-09 22:49:00,
2013-11-09 17:05:00,63.3,-38.9,29.88,North,0,0.0,-999.0,1,-99.99,,,0.00,Acu-Link.com,2013-11-09 23:05:00,
2013-11-09 17:20:00,62.4,-39.4,29.87,NNW,337,0.0,-999.0,1,-99.99,,,0.00,Acu-Link.com,2013-11-09 23:20:00,
2013-11-09 17:35:00,61.7,-39.8,29.86,WNW,292,0.0,-999.0,1,-99.99,,,0.00,Acu-Link.com,2013-11-09 23:35:00,
2013-11-09 17:50:00,61.0,-40.2,29.87,NNW,337,0.0,-999.0,1,-99.99,,,0.00,Acu-Link.com,2013-11-09 23:50:00,
2013-11-09 18:06:00,60.1,-40.8,29.88,West,270,0.0,-999.0,1,-99.99,,,0.00,Acu-Link.com,2013-11-10 00:06:00,
2013-11-09 18:21:00,59.5,-41.2,29.88,WNW,292,1.7,-999.0,1,-99.99,,,0.00,Acu-Link.com,2013-11-10 00:21:00,
2013-11-09 18:36:00,59.2,-41.3,29.88,NNW,337,0.0,-999.0,1,-99.99,,,0.00,Acu-Link.com,2013-11-10 00:36:00,
2013-11-09 18:52:00,59.0,-41.5,29.88,WNW,292,1.7,-999.0,1,-99.99,,,0.00,Acu-Link.com,2013-11-10 00:52:00,
2013-11-09 19:07:00,58.8,-41.6,29.88,North,0,1.7,-999.0,1,-99.99,,,0.00,Acu-Link.com,2013-11-10 01:07:00,
2013-11-09 19:22:00,59.0,-41.5,29.89,NNE,22,2.2,-999.0,1,-99.99,,,0.00,Acu-Link.com,2013-11-10 01:22:00,
2013-11-09 19:38:00,59.0,-41.5,29.89,North,0,2.7,-999.0,1,-99.99,,,0.00,Acu-Link.com,2013-11-10 01:38:00,
2013-11-09 19:53:00,59.0,-41.5,29.89,NE,45,2.2,-999.0,1,-99.99,,,0.00,Acu-Link.com,2013-11-10 01:53:00,
2013-11-09 20:08:00,59.0,-41.5,29.89,NNE,22,3.7,-999.0,1,-99.99,,,0.00,Acu-Link.com,2013-11-10 02:08:00,
2013-11-09 20:23:00,58.8,-41.6,29.90,NNE,22,3.7,-999.0,1,-99.99,,,0.00,Acu-Link.com,2013-11-10 02:23:00,
2013-11-09 20:39:00,58.6,-41.7,29.90,NNW,337,4.2,-999.0,1,-99.99,,,0.00,Acu-Link.com,2013-11-10 02:39:00,
2013-11-09 20:54:00,58.3,-41.9,29.91,NW,315,4.7,-999.0,1,-99.99,,,0.00,Acu-Link.com,2013-11-10 02:54:00,
2013-11-09 21:09:00,57.9,-42.1,29.91,NNW,337,6.8,-999.0,1,-99.99,,,0.00,Acu-Link.com,2013-11-10 03:09:00,
2013-11-09 21:25:00,57.4,-42.4,29.92,NNW,337,5.8,-999.0,1,-99.99,,,0.00,Acu-Link.com,2013-11-10 03:25:00,
2013-11-09 21:40:00,57.2,-42.6,29.93,NNE,22,6.3,-999.0,1,-99.99,,,0.00,Acu-Link.com,2013-11-10 03:40:00,
2013-11-09 21:55:00,56.7,-42.9,29.92,North,0,3.7,-999.0,1,-99.99,,,0.00,Acu-Link.com,2013-11-10 03:55:00,
2013-11-09 22:10:00,56.3,-43.1,29.93,NNW,337,4.7,-999.0,1,-99.99,,,0.00,Acu-Link.com,2013-11-10 04:10:00,
2013-11-09 22:25:00,56.1,-43.2,29.93,NNE,22,7.3,-999.0,1,-99.99,,,0.00,Acu-Link.com,2013-11-10 04:25:00,
2013-11-09 22:40:00,55.9,-43.3,29.93,NNE,22,3.2,-999.0,1,-99.99,,,0.00,Acu-Link.com,2013-11-10 04:40:00,
2013-11-09 22:55:00,55.6,-43.5,29.92,NNW,337,4.7,-999.0,1,-99.99,,,0.00,Acu-Link.com,2013-11-10 04:55:00,
2013-11-09 23:10:00,55.4,-43.7,29.93,North,0,4.7,-999.0,1,-99.99,,,0.00,Acu-Link.com,2013-11-10 05:10:00,
2013-11-09 23:26:00,55.0,-43.9,29.92,NNE,22,2.7,-999.0,1,-99.99,,,0.00,Acu-Link.com,2013-11-10 05:26:00,
2013-11-09 23:41:00,54.9,-44.0,29.93,NNE,22,5.3,-999.0,1,-99.99,,,0.00,Acu-Link.com,2013-11-10 05:41:00,
2013-11-09 23:56:00,54.7,-44.1,29.93,NNE,22,4.7,-999.0,1,-99.99,,,0.00,Acu-Link.com,2013-11-10 05:56:00,